Location: Newark
(9.4667°S, 159.8167°E)
Time: 07:03:03
(UTC+00:00)

Transit 4A - All Passes

Search period start: 13 November 2019 00:00
Search period end: 23 November 2019 00:00
Orbit: 868 x 976 km, 66.8° (Epoch: 12 November)

Date Brightness Start Highest point End Pass type
(mag) Time Alt. Az. Time Alt. Az. Time Alt. Az.
13 Nov - 10:41:44 10° SSW 10:48:09 87° ESE 10:54:31 10° NNE visible
13 Nov - 22:01:33 10° NE 22:04:58 16° ENE 22:08:23 10° ESE daylight
13 Nov - 23:45:34 10° NW 23:50:54 39° WSW 23:56:22 10° S daylight
14 Nov - 09:08:08 10° SE 09:11:04 13° ESE 09:13:59 10° E visible
14 Nov - 10:51:10 10° SSW 10:57:25 57° WNW 11:03:38 10° N visible
14 Nov - 22:09:18 10° NNE 22:14:10 28° ENE 22:19:06 10° SE daylight
14 Nov - 23:55:50 10° WNW 00:00:16 23° WSW 00:04:48 10° SSW daylight
15 Nov - 09:15:36 10° SSE 09:20:30 23° ESE 09:25:23 10° ENE visible
15 Nov - 11:01:00 10° SW 11:06:41 34° WNW 11:12:19 10° N visible
15 Nov - 22:17:51 10° N 22:23:24 49° ENE 22:29:03 10° SE daylight
16 Nov - 00:07:12 10° W 00:09:42 13° WSW 00:12:14 10° SW daylight
16 Nov - 09:24:00 10° S 09:29:53 38° ESE 09:35:43 10° NE visible
16 Nov - 11:11:25 10° WSW 11:15:55 20° WNW 11:20:24 10° NNW visible
16 Nov - 22:26:52 10° NNW 22:32:39 86° ENE 22:38:34 10° SSE daylight
17 Nov - 09:32:53 10° S 09:39:13 63° ESE 09:45:30 10° NNE visible
17 Nov - 11:23:31 10° W 11:25:09 11° WNW 11:26:47 10° WNW visible
17 Nov - 20:55:02 10° ENE 20:56:04 10° ENE 20:57:05 10° E daylight
17 Nov - 22:36:18 10° NNW 22:41:56 55° WSW 22:47:43 10° S daylight
18 Nov - 09:42:07 10° SSW 09:48:31 79° WNW 09:54:52 10° NNE visible
18 Nov - 21:01:12 10° NNE 21:05:17 20° ENE 21:09:23 10° ESE daylight
18 Nov - 22:46:11 10° NW 22:51:16 32° WSW 22:56:28 10° S daylight
19 Nov - 08:07:38 10° SSE 08:11:29 16° ESE 08:15:19 10° ENE visible
19 Nov - 09:51:41 10° SW 09:57:47 47° WNW 10:03:49 10° N visible
19 Nov - 21:09:19 10° N 21:14:30 34° ENE 21:19:46 10° SE daylight
19 Nov - 22:56:43 10° WNW 23:00:40 19° WSW 23:04:41 10° SSW daylight
20 Nov - 08:15:34 10° S 08:20:54 28° ESE 08:26:12 10° NE visible
20 Nov - 10:01:42 10° SW 10:07:02 28° WNW 10:12:20 10° NNW visible
20 Nov - 21:18:02 10° N 21:23:44 61° ENE 21:29:32 10° SSE daylight
20 Nov - 23:09:39 10° WSW 23:10:07 10° WSW 23:10:35 10° WSW daylight
21 Nov - 08:24:10 10° S 08:30:17 46° ESE 08:36:19 10° NE visible
21 Nov - 10:12:28 10° WSW 10:16:16 16° WNW 10:20:03 10° NW visible
21 Nov - 21:27:13 10° NNW 21:32:59 79° WSW 21:38:55 10° SSE daylight
22 Nov - 08:33:11 10° SSW 08:39:36 76° ESE 08:45:56 10° NNE visible
22 Nov - 19:53:40 10° NE 19:56:23 13° ENE 19:59:07 10° ESE daylight
22 Nov - 21:36:47 10° NW 21:42:18 45° WSW 21:47:55 10° S daylight
